Lid_Strength_Index
10 10 13 12 12 12 12 13 13 12 11 12 13 12 10 9 8 8 8 7 7 6 4 4 3 3 3 3 3 3 3 2 3 3 3 3 3 3 2 1 -0 0 -0 -0
11 13 10 9 10 11 12 14 14 12 11 12 13 12 11 9 9 8 8 7 7 6 6 5 5 4 4 3 3 3 3 2 3 3 2 2 3 2 1 1 1 0 -0 -1
12 11 9 10 11 12 13 14 14 13 12 12 13 14 12 9 9 7 7 7 7 6 6 5 5 5 4 4 3 3 3 3 2 2 3 3 3 3 3 2 2 1 -0 -1
11 9 10 11 11 12 15 11 12 12 14 16 13 18 14 11 10 8 7 7 7 6 5 5 5 4 4 3 3 3 3 2 2 2 3 3 4 4 4 3 2 2 1 -0
11 11 11 12 11 11 12 11 12 12 15 15 15 16 15 11 11 10 8 7 6 6 6 5 4 4 3 3 3 2 2 2 2 1 2 2 3 3 3 3 3 3 2 1
11 9 10 11 9 10 11 13 14 15 16 18 15 15 16 13 11 9 8 7 6 6 6 5 5 4 4 2 2 2 2 3 2 2 2 3 4 3 3 3 3 3 3 2
11 11 10 9 11 11 12 15 20 19 19 19 15 15 15 10 9 8 8 7 6 6 6 6 5 5 4 4 3 3 2 2 2 2 2 2 3 3 3 3 2 4 3 3
14 14 11 10 12 14 14 15 18 20 21 18 14 17 14 9 8 8 7 7 7 7 6 6 5 5 4 3 3 3 3 4 3 3 3 2 3 3 3 2 2 3 3 3
15 14 11 10 10 11 13 15 14 16 18 19 17 14 10 9 9 9 8 8 8 7 7 6 6 5 4 4 4 4 3 3 3 3 3 3 2 2 2 3 3 3 3 2
13 16 12 10 10 10 11 11 16 17 20 21 17 16 15 12 11 9 9 9 8 7 7 7 5 5 4 5 4 4 4 4 3 3 3 3 3 2 1 2 3 3 3 2
13 15 14 12 13 13 12 14 14 15 16 19 20 17 11 11 10 9 9 8 7 7 7 6 5 5 4 4 5 5 4 4 4 3 3 3 3 3 2 2 2 3 3 2
12 14 16 15 11 10 11 13 14 18 17 16 16 16 9 9 8 8 7 7 7 7 6 6 5 5 5 5 5 5 5 4 4 4 4 4 4 3 3 3 3 2 3 2
12 16 20 17 14 12 12 11 12 14 15 16 19 16 9 8 8 8 8 8 7 6 6 5 5 5 4 4 5 4 4 4 4 5 5 5 5 5 5 5 4 4 3 3
9 15 16 18 16 13 14 12 11 13 20 16 15 14 11 9 9 8 8 7 6 6 5 5 5 4 4 5 5 5 5 6 7 7 7 7 6 6 6 6 6 5 5 5
12 15 14 13 12 11 12 12 11 13 13 15 13 13 11 10 9 7 7 7 6 6 5 5 5 5 5 5 6 7 7 7 7 8 9 8 7 7 7 6 6 6 6 6
12 15 14 14 11 11 13 11 11 11 12 12 12 13 9 8 8 8 7 6 6 6 5 5 5 5 7 8 8 8 7 7 7 8 8 8 7 7 7 7 6 6 6 6
14 14 15 16 12 12 15 13 12 12 11 12 14 11 9 8 8 7 7 6 6 6 5 5 6 8 9 9 8 8 8 7 7 7 8 8 8 7 6 6 5 5 6 6
13 14 14 16 15 20 13 9 9 11 10 9 9 9 8 8 7 6 5 6 6 6 6 7 8 9 9 8 8 7 7 7 7 7 8 8 8 8 7 6 6 5 5 5
11 13 15 18 17 14 12 11 13 14 12 9 10 8 8 7 7 7 6 6 5 6 7 8 9 8 8 8 7 7 7 7 7 7 7 8 8 8 7 7 7 6 7 6
11 12 15 16 18 19 14 9 8 10 16 9 8 8 8 8 11 9 5 5 6 7 8 9 9 8 8 8 7 8 8 8 8 7 7 7 8 8 8 7 7 6 6 6
15 15 16 17 18 15 11 8 8 17 14 9 8 8 8 10 8 6 6 7 7 8 9 9 8 8 8 7 7 8 8 8 7 6 7 7 8 8 7 7 7 6 7 7
15 18 18 17 18 18 9 9 14 11 10 8 8 8 8 7 6 7 7 8 10 10 9 8 8 8 8 7 7 8 8 7 6 6 7 7 8 8 7 7 7 7 7 7
16 14 16 15 15 11 9 9 8 9 9 7 8 7 7 7 7 8 9 10 10 9 9 8 8 8 7 7 7 8 7 6 6 6 7 7 8 8 6 7 7 7 7 7
13 12 13 13 12 10 9 8 8 8 7 6 6 6 7 8 8 9 10 10 10 9 9 8 8 8 8 7 7 6 6 5 6 7 7 8 8 7 6 7 7 7 7 7
12 11 12 13 11 10 9 8 8 7 7 6 6 6 7 8 8 9 10 10 9 9 9 8 8 8 8 7 7 6 4 5 6 7 7 8 8 7 6 9 10 8 8 7
12 12 13 14 10 11 10 8 8 8 7 6 7 7 7 8 9 10 10 9 8 9 9 8 8 8 8 7 6 5 4 5 6 7 7 8 7 6 7 7 8 10 11 11